sat.trackr.live / text

‹ back to catalog

STARLINK-31862

NORAD 59786 · 2024-093E

PAYLOAD ACTIVE UNKNOWN

§ Identity

Operator
Country
US
Launch date
2024-05-18
Launch site
AFETR
Launch vehicle
Mass (kg)
RCS (m²)

Purposes: comms

External: N2YO · Heavens-Above · Gunter

§ Orbital elements

Epoch: 2026-05-25T00:34:41.285280Z

Period
94.27 min
Inclination
43.0004°
Eccentricity
0.0000979
Mean motion
15.27576107 rev/d
Perigee alt
482.4 km
Apogee alt
483.7 km
Semi-major
6,861.2 km
B*
4.9827e-6
RAAN
137.4705°
Arg perigee
277.2920°
Mean anomaly
82.7821°
Rev number
11,437

§ Raw data

STARLINK-318621 59786U 24093E   26145.02408895 -.00000125  00000+0  49827-5 0  99902 59786  43.0004 137.4705 0000979 277.2920  82.7821 15.27576107114374

JSON: /api/v1/satellites/59786 · /tle

For live sub-satellite position, see the globe view (requires WebGL).

§ Visibility from observer

Set your observer location to see the next 7 days of passes ≥ 10°. The values pass through the URL so the page stays shareable.

No JS? Fill the form by hand. The geolocation button needs JavaScript.